Location: Newark
(33.9035°S, 18.4112°E)
Time: 06:16:09
(UTC+00:00)

Hubble Space Telescope - Visible Passes

Search period start: 24 January 2020 00:00
Search period end: 03 February 2020 00:00
Orbit: 536 x 540 km, 28.5° (Epoch: 23 January)

Date Brightness Start Highest point End Pass type
(mag) Time Alt. Az. Time Alt. Az. Time Alt. Az.
24 Jan 2.6 18:37:44 10° NNW 18:40:14 15° NNE 18:42:08 12° NE visible
24 Jan 3.3 20:17:11 10° NW 20:17:30 12° NW 20:17:30 12° NW visible
25 Jan 2.4 18:26:35 10° NNW 18:29:31 19° NNE 18:32:27 10° ENE visible
25 Jan 2.7 20:06:27 10° WNW 20:07:56 19° NW 20:07:56 19° NW visible
26 Jan 2.1 19:55:44 10° WNW 19:58:12 28° NW 19:58:12 28° NW visible
27 Jan 1.6 19:45:03 10° WNW 19:48:19 36° NNW 19:48:19 36° NNW visible
28 Jan 1.3 19:34:23 10° WNW 19:38:17 39° N 19:38:20 39° N visible
29 Jan 1.4 19:23:44 10° WNW 19:27:38 38° N 19:28:16 36° NNE visible
30 Jan 1.5 19:13:06 10° WNW 19:16:58 37° N 19:18:08 30° NNE visible
31 Jan 1.7 19:02:29 10° WNW 19:06:18 35° N 19:07:59 24° NE visible
01 Feb 1.8 18:51:54 10° WNW 18:55:38 32° N 18:57:49 19° NE visible
02 Feb 2.0 18:41:19 10° WNW 18:44:57 28° NNW 18:47:38 15° NE visible
